Location: �mondeville
(49.4591°N, 1.3431°W)
Time: 09:02:48
(UTC+00:00)

Cosmos 1709 Rocket - Pass Details

Date: 22 October 2019
Orbit: 949 x 1001 km, 82.9° (Epoch: 13 November)

Event Time Altitude Azimuth Distance (km) Brightness Sun altitude
Exits shadow 04:00:40 48° 307° (NW) 1,278 4.3 -25.9°
Drops below altitude 10° 04:06:10 10° 1° (N) 2,780 6.5 -25.0°
Sets 04:08:50 0° 7° (N) 3,737 7.3 -24.6°
